Regional Weather Roundup
Issued by NWS

Home | Current Version | Previous Version | Text Only | Print | Product List | Glossary On
Versions: 1 2 3 4 5 6 7 8 9 10 11 12 13 14 15 16 17 18 19 20 21 22 23 24 25 26 27 28 29 30 31 32 33 34 35 36 37 38 39 40 41 42 43 44 45 46 47 48 49 50
000
ASUS45 KPSR 261010
RWRAZ

ARIZONA HOURLY REGIONAL WEATHER ROUNDUP
NATIONAL WEATHER SERVICE PHOENIX AZ
300 AM MST FRI AUG 26 2016

NOTE: FAIR INDICATES FEW OR NO CLOUDS BELOW 12,000 FEET WITH NO
SIGNIFICANT WEATHER AND/OR OBSTRUCTIONS TO VISIBILITY.

AZZ001>003-036-261100-
NORTHWEST ARIZONA

CITY           SKY/WX    TMP DP  RH WIND       PRES   REMARKS
BULLHEAD CITY  FAIR      91  48  22 S14       29.78S
KINGMAN        FAIR      74  52  46 SE12      30.01R
$$

AZZ004>008-015-016-018-261100-
NORTH CENTRAL ARIZONA

CITY           SKY/WX    TMP DP  RH WIND       PRES   REMARKS
GRAND CANYON     N/A    N/A N/A N/A MISG      30.29R
PRESCOTT       MOCLDY    59  56  89 S7        30.16F
FLAGSTAFF      LGT RAIN  51  50  96 N3        30.32R
PAYSON         MOCLDY    59  52  77 N7        30.22S
PAGE           MOCLDY    63  56  78 S7        30.16R
$$

AZZ009>014-017-261100-
NORTHEAST ARIZONA

CITY           SKY/WX    TMP DP  RH WIND       PRES   REMARKS
WINSLOW        CLOUDY    59  55  87 NW9       30.25R
SAINT JOHNS    FAIR      56  53  90 S3        30.23S
WINDOW ROCK    FAIR      54  47  77 SE3       30.28F
SHOW LOW       FAIR      50  46  87 CALM      30.27F
$$

AZZ023-261100-
GREATER PHOENIX AREA

CITY           SKY/WX    TMP DP  RH WIND       PRES   REMARKS
PHOENIX        MOCLDY    85  59  41 NE14      29.86R
BUCKEYE        MOCLDY    84  57  39 E7        29.88S
LUKE AFB       DRIZZLE   84  57  39 N12       29.88R
DEER VALLEY    CLOUDY    82  54  37 N9        29.89R
SCOTTSDALE     CLOUDY    85  54  34 NE5       29.92R THUNDER
MESA-GATEWAY   MOCLDY    82  55  39 CALM      29.90R
$$

AZZ027-028-261100-
SOUTHWEST MARICOPA COUNTY AND PINAL COUNTY

CITY           SKY/WX    TMP DP  RH WIND       PRES   REMARKS
CASA GRANDE    FAIR      82  55  39 CALM      29.91R
GILA BEND      MOCLDY    85  54  33 S2        29.84R
$$

AZZ503-504-507>509-261100-
SOUTHEAST ARIZONA

CITY           SKY/WX    TMP DP  RH WIND       PRES   REMARKS
TUCSON         CLOUDY    81  60  48 S12       30.01R
DAVIS-MONTHAN  MOCLDY    78  60  53 SE5       30.00R
NOGALES        MOCLDY    66  56  70 CALM      30.10S
SIERRA VISTA   FAIR      64  54  70 CALM      30.14S
DOUGLAS        FAIR      63  57  81 SE8       30.11S
SAFFORD        CLOUDY    72  59  63 S8        30.00R
$$

AZZ020-021-025-026-031-261100-
SOUTHWEST ARIZONA

CITY           SKY/WX    TMP DP  RH WIND       PRES   REMARKS
YUMA           FAIR      84  74  71 SE9       29.78S
$$

CAZ031-033-041-043-047-048-061-261100-
SOUTHERN CALIFORNIA

CITY           SKY/WX    TMP DP  RH WIND       PRES   REMARKS
DOWNTOWN L.A.  CLOUDY    67  60  78 CALM      29.91S
L.A. AIRPORT   CLOUDY    67  59  75 S3        29.92S
SAN DIEGO      CLOUDY    67  59  75 SW7       29.93F
BURBANK        CLOUDY    66  59  78 SE7       29.92S
ONTARIO        MOCLDY    63  58  83 SW8       29.93S HAZE
RIVERSIDE      CLOUDY    63  58  83 CALM      29.93S
PALM SPRINGS   FAIR      80  48  32 CALM      29.81R
EL CENTRO NAS  FAIR      81  73  76 E7        29.77S
IMPERIAL       FAIR      84  75  74 SE7       29.75S
BLYTHE         FAIR      83  68  60 S8        29.80R
NEEDLES        FAIR      91  47  21 S10       29.80R
$$

NVZ020-UTZ003-261100-
SOUTHERN NEVADA-UTAH

CITY           SKY/WX    TMP DP  RH WIND       PRES   REMARKS
LAS VEGAS      FAIR      83  41  22 NE7       29.84R
SALT LAKE CITY FAIR      68  36  30 S13       30.02S
$$

NMZ009-TXZ055-261100-
NEW MEXICO-WEST TEXAS

CITY           SKY/WX    TMP DP  RH WIND       PRES   REMARKS
ALBUQUERQUE    MOCLDY    65  51  60 N10       30.20S
EL PASO        FAIR      70  56  61 CALM      30.09S
$$


........................KEY........................
SKY/WX - SKY CONDITION/WEATHER
TMP    - TEMPERATURE IN FAHRENHEIT
DP     - DEW POINT IN FAHRENHEIT
RH     - RELATIVE HUMIDITY IN PERCENT
WIND   - DIRECTION AND SPEED IN MILES PER HOUR (MPH)
VRB    - VARIABLE WIND DIRECTION
PRES   - MEAN SEA LEVEL PRESSURE IN INCHES OF MERCURY
         F - FALLING PRESSURE   R - RISING PRESSURE
         S - STEADY PRESSURE
VSB    - VISIBILITY IN MILES
HX     - HEAT INDEX IN FAHRENHEIT
WCI    - WIND CHILL INDEX IN FAHRENHEIT
TC     - TEMPERATURE IN CELSIUS WHICH IS ALSO KNOWN AS
         TEMPERATURE IN CENTIGRADE
AFB    - AIR FORCE BASE
         LUKE AFB IS LUKE AIR FORCE BASE
         DAVIS-MONTHAN IS DAVIS-MONTHAN AIR FORCE BASE
NAS    - NAVAL AIR STATION
         EL CENTRO NAS IS EL CENTRO NAVAL AIR STATION
N/A    - NOT AVAILABLE




USA.gov is the U.S. government's official web portal to all federal, state and local government web resources and services.